Wind_Speed
11 13 14 15 17 18 19 20 22 23 23 24 24 26 27 28 28 29 29 30 31 31 31 31 31 32 33 35 35 34 34 33 31 28 26 23 19 16 14 14 14 15 16 16 16 17 17 18 21 23 24 25 26 27 28 30 33 34 36 37 37 38 41 42 42 43 41 40 40 39 37 37 34 32 33 35 37 38 37 37 37 39 39 37 36 36 36 36
13 14 15 16 17 19 20 22 23 24 25 25 26 27 29 30 30 31 32 32 33 33 33 33 32 33 33 35 36 35 33 32 31 29 27 24 20 17 16 15 17 18 18 18 18 18 18 19 22 24 26 26 27 28 28 30 32 35 36 38 37 37 40 43 43 44 45 43 43 42 40 40 38 34 34 35 36 37 37 37 38 39 40 39 38 36 36 37
14 15 16 17 18 20 21 23 24 26 26 27 28 29 30 31 32 33 34 35 35 36 36 36 37 36 36 38 38 36 34 31 30 29 27 24 21 18 17 18 19 19 20 20 19 19 19 20 23 25 27 28 29 29 29 31 32 35 37 38 38 37 40 43 44 46 47 47 46 45 43 42 41 39 37 37 38 38 39 38 39 39 40 41 40 39 38 38
16 16 17 18 20 21 23 24 26 27 28 29 30 31 31 32 33 34 36 37 38 39 40 41 42 42 41 41 38 35 33 29 28 28 27 24 21 20 19 20 20 21 21 20 20 19 19 21 23 26 28 29 30 31 31 32 34 36 38 39 40 39 40 43 46 48 49 50 49 49 47 45 45 43 40 41 43 43 42 40 40 40 40 41 42 41 41 41
17 18 19 20 21 23 24 25 27 28 30 31 32 32 33 33 35 36 37 39 40 42 43 45 46 45 43 40 35 32 31 28 26 27 27 25 23 22 22 22 22 21 21 20 20 20 20 22 24 26 28 29 30 31 33 34 36 38 39 41 42 42 43 45 47 50 52 53 53 52 51 49 49 47 43 44 48 47 44 42 41 42 43 43 43 43 43 43
19 20 21 22 23 24 26 27 28 30 31 32 33 33 34 35 36 38 39 41 42 44 46 47 46 44 41 37 33 30 29 27 26 27 27 26 25 24 23 23 22 22 21 21 21 22 23 24 26 28 29 30 31 33 35 37 39 40 41 42 43 44 45 47 48 51 53 54 56 56 54 52 51 51 47 46 49 48 45 44 44 45 45 45 45 44 44 44
20 21 22 24 25 26 27 28 29 31 33 34 34 34 35 36 38 39 41 42 44 46 47 46 44 42 39 37 33 30 28 27 27 26 26 26 26 25 25 24 23 23 24 24 24 25 27 28 30 31 32 33 35 36 38 40 42 43 43 43 45 46 46 49 49 51 53 55 57 58 56 54 53 53 50 48 50 49 46 46 46 47 47 47 46 45 44 45
22 23 24 25 26 27 29 30 31 32 33 35 35 36 36 37 39 40 42 44 45 47 46 44 42 40 39 37 34 31 28 26 26 26 26 26 26 26 25 25 25 25 27 28 28 29 31 32 34 36 37 37 38 40 42 44 45 45 46 46 46 47 47 49 50 51 53 55 57 59 57 54 53 53 49 48 51 50 48 47 47 48 48 48 47 46 45 44
24 25 26 27 28 29 30 31 32 33 34 35 36 36 37 38 40 42 44 45 47 47 45 44 42 40 38 36 34 32 29 26 25 25 25 25 26 26 25 26 26 28 29 30 31 33 34 35 37 39 40 40 41 43 44 46 46 47 49 49 49 49 48 50 51 52 54 55 58 60 58 54 51 50 47 47 50 50 50 49 49 50 49 47 46 45 45 44
26 27 27 28 29 31 32 33 33 34 34 35 37 37 38 39 41 44 46 48 48 46 44 43 42 40 38 36 35 33 30 28 25 24 25 25 26 26 26 27 28 31 32 33 34 35 35 36 38 40 41 42 43 45 46 47 48 50 52 52 52 53 50 51 53 54 55 56 59 61 60 55 49 47 46 46 49 50 51 50 50 50 48 46 44 44 43 44
27 28 28 29 31 32 33 34 34 35 35 36 37 38 39 40 43 46 49 49 47 45 44 43 42 41 39 37 35 33 32 29 26 25 25 25 25 26 27 29 31 33 35 35 35 35 36 37 38 40 41 43 45 47 48 49 51 53 55 54 54 55 52 52 54 55 57 57 58 62 62 57 49 45 46 46 48 50 51 51 50 50 49 47 44 42 41 41
29 29 30 31 32 33 34 35 35 36 36 37 38 40 41 42 45 48 49 49 46 44 43 42 42 41 40 37 35 33 32 30 28 26 26 25 25 26 29 31 33 34 35 35 35 35 36 37 39 42 44 47 49 50 50 51 53 54 56 56 55 56 53 52 54 55 57 58 58 61 62 57 50 47 47 47 49 52 53 52 52 52 50 48 44 41 38 37
30 30 31 32 33 34 35 36 36 37 38 39 40 41 43 44 47 49 50 49 46 44 43 42 41 41 40 38 36 34 33 30 29 28 27 27 27 28 30 32 34 35 35 34 34 35 37 39 42 45 48 50 51 52 52 53 55 56 57 57 56 56 54 51 53 55 57 59 59 60 61 57 52 50 50 50 52 54 55 54 55 53 50 47 45 43 40 37
31 31 32 33 34 35 36 37 37 39 40 41 42 43 45 47 49 50 51 50 48 45 43 41 41 40 41 40 39 37 35 33 31 30 29 29 29 30 31 33 34 35 35 35 36 37 40 42 46 49 50 52 53 54 53 54 57 57 57 57 56 57 55 51 52 55 58 60 59 60 62 60 55 52 51 54 56 58 58 56 56 53 50 49 47 46 45 42
32 33 34 34 35 36 37 38 39 40 42 43 44 46 47 49 52 53 53 53 50 46 44 42 41 41 41 41 40 38 36 34 32 32 31 30 30 31 32 33 35 36 37 37 38 40 43 46 49 51 52 54 55 56 56 56 58 58 58 58 57 57 57 53 52 55 57 60 60 60 62 62 58 54 54 57 60 62 61 60 59 55 52 50 48 49 48 48
34 35 36 36 37 38 39 39 40 42 43 45 46 48 50 53 55 56 55 54 51 47 45 44 43 42 41 40 39 38 35 34 33 33 31 30 30 31 33 34 35 37 38 39 40 43 45 48 51 52 54 55 56 58 58 59 59 57 58 58 57 57 57 55 53 55 58 60 61 61 63 64 61 58 57 59 63 67 66 65 63 58 53 50 49 50 50 51
35 37 38 38 39 40 40 41 42 43 45 47 48 50 53 55 57 57 56 54 51 48 46 45 44 42 40 38 38 36 35 34 33 33 31 30 31 31 33 34 36 38 40 41 43 45 47 50 53 54 55 57 57 59 61 60 60 59 59 59 58 58 58 58 57 57 59 62 63 61 63 65 63 62 61 61 64 68 69 68 65 58 53 51 52 53 53 55
37 38 39 40 41 41 42 43 44 45 47 49 50 52 55 56 58 57 55 53 50 47 45 45 43 41 40 38 37 36 34 33 33 33 32 32 32 33 34 35 37 40 42 44 45 47 49 52 55 55 56 57 58 60 61 61 62 62 62 62 61 61 61 61 60 60 62 64 65 65 64 65 63 62 62 62 64 67 68 69 64 57 53 54 55 57 58 59
39 40 40 42 43 43 44 45 46 47 48 50 52 54 56 57 58 56 52 50 46 44 44 44 42 41 40 38 38 37 36 34 33 33 34 33 33 35 37 38 41 43 45 47 48 49 51 54 57 57 57 58 57 59 59 60 62 61 61 61 61 62 62 61 61 62 64 66 67 67 67 66 63 61 61 61 63 66 69 70 65 58 56 57 59 61 61 59
40 41 42 43 44 44 45 46 48 49 50 51 53 54 56 57 57 54 50 48 46 44 44 43 42 42 40 39 39 39 37 36 35 36 37 36 37 38 40 42 43 46 47 49 50 51 53 56 58 58 59 58 58 59 60 61 61 60 60 60 60 61 61 61 61 62 65 69 68 67 68 67 63 61 61 62 63 66 70 70 66 63 62 62 64 64 61 58
41 42 43 44 46 46 46 48 49 51 52 53 54 56 58 59 59 57 52 50 49 47 45 44 42 42 42 41 40 39 38 37 37 38 39 39 40 42 43 45 46 47 49 50 51 53 54 58 59 59 59 59 60 60 60 61 61 60 59 60 60 61 62 62 63 64 66 71 70 67 69 67 61 61 63 64 64 66 71 71 68 67 67 69 71 68 64 63
42 43 44 46 47 47 47 49 50 52 53 55 56 58 59 60 60 59 55 53 52 50 48 46 44 42 41 40 40 39 39 39 39 39 41 42 44 45 46 47 48 49 50 51 53 54 56 58 59 59 60 61 61 61 61 62 61 60 59 60 62 62 64 65 64 65 68 72 73 72 73 70 63 63 65 66 66 69 72 71 70 70 71 74 76 73 71 70
43 44 45 47 47 47 48 50 51 53 55 56 57 58 60 60 60 59 56 54 53 51 50 49 47 44 42 40 39 39 40 40 40 41 42 44 45 47 48 49 50 52 53 54 55 56 57 59 60 61 61 62 62 60 61 62 62 61 60 61 64 64 67 70 68 68 68 71 76 79 80 75 68 69 69 67 68 72 72 70 71 74 75 76 76 75 74 72
44 45 46 47 47 48 49 51 52 54 55 57 58 59 60 61 61 59 56 54 53 52 51 50 48 46 44 43 41 40 40 40 40 42 42 44 46 48 49 50 52 53 54 55 56 56 57 60 61 61 62 62 61 61 61 62 62 61 61 63 65 66 68 72 72 73 72 70 75 83 87 82 75 76 74 70 72 75 74 71 73 76 76 76 76 76 75 75
45 46 47 47 48 49 50 52 53 54 56 58 59 60 61 61 61 59 56 54 54 53 52 51 49 47 47 47 45 44 44 42 42 43 44 45 47 49 50 51 52 53 54 55 56 56 58 60 61 61 62 62 62 62 61 63 64 63 63 65 67 69 71 74 75 78 79 76 75 82 91 88 82 81 79 77 79 78 75 75 76 78 79 78 77 77 77 77
46 47 47 47 49 50 51 53 54 56 58 60 61 62 62 62 61 59 56 55 55 54 52 51 50 49 48 48 48 48 47 46 45 46 48 49 50 51 52 53 53 53 54 55 56 57 59 61 62 62 63 62 62 63 62 64 65 65 66 67 69 72 75 76 78 81 83 83 81 82 87 90 89 87 83 82 82 80 79 81 82 82 81 79 78 78 76 76
47 48 48 48 50 51 53 54 56 57 60 62 63 63 62 62 61 58 56 56 55 54 53 52 51 50 50 50 50 50 49 49 49 50 51 52 53 54 54 53 54 54 54 56 57 59 61 62 62 63 63 62 63 63 63 65 66 67 68 70 72 75 77 78 80 82 84 86 86 82 83 91 95 93 88 84 82 83 84 85 86 85 83 80 79 77 76 76
48 48 48 49 51 53 55 56 57 59 61 64 65 64 62 61 60 57 55 56 55 54 53 52 52 52 52 52 52 51 50 51 52 53 54 55 56 56 56 54 54 54 56 58 60 61 63 63 63 64 64 64 65 65 65 67 69 70 71 73 74 76 78 79 81 82 82 87 88 84 85 92 97 96 90 84 83 86 88 89 88 86 83 81 79 79 79 78
49 49 50 51 53 54 56 57 59 61 63 65 65 63 61 60 58 55 55 56 56 54 53 52 52 52 53 53 53 52 52 53 54 56 56 57 58 58 57 56 56 57 58 60 62 63 64 65 65 66 66 67 67 67 69 70 72 73 74 75 76 77 78 79 81 82 83 88 88 86 87 92 98 97 89 85 88 90 91 91 90 88 85 83 83 83 82 80
50 50 51 52 55 56 57 59 60 62 65 66 64 62 59 57 56 55 55 56 57 56 54 53 52 52 53 54 54 54 54 55 56 57 58 58 59 59 58 58 59 60 60 61 63 65 66 66 67 67 67 68 69 70 72 72 73 74 74 75 76 77 78 80 82 84 85 87 86 86 88 91 99 97 87 87 90 91 93 94 93 91 88 86 85 84 83 80
51 51 52 54 56 57 59 60 61 63 65 65 62 60 58 56 55 55 56 57 59 58 55 55 55 54 54 55 55 55 56 57 58 58 59 59 59 59 59 59 60 61 62 63 64 66 67 67 67 68 68 70 71 72 73 72 73 73 73 76 79 81 82 84 85 85 86 87 86 86 88 91 99 98 90 91 93 93 96 95 94 93 90 88 86 82 81 78
53 53 54 56 58 59 60 62 62 64 65 64 61 58 57 57 55 55 57 59 60 59 57 57 58 58 58 58 58 58 58 58 59 60 60 61 61 62 61 62 63 64 65 66 68 69 70 69 69 69 71 73 73 73 73 72 72 73 75 78 83 86 87 87 88 87 88 88 86 86 90 93 98 98 94 95 95 96 97 96 95 92 89 88 87 86 84 82
54 54 56 58 59 60 62 63 64 65 65 62 60 58 58 59 57 58 60 61 62 61 60 60 61 62 63 63 62 61 60 60 60 61 61 62 63 64 64 65 65 66 68 70 73 74 73 73 73 72 73 74 75 75 75 75 74 76 79 82 85 86 85 86 89 90 90 89 87 87 90 95 98 97 95 95 98 100 99 97 94 90 88 88 88 89 88 84
56 56 58 60 61 62 63 64 65 66 65 61 59 59 60 61 61 61 61 62 63 63 63 63 64 65 66 65 65 63 62 62 62 62 63 63 64 65 65 65 66 67 70 72 74 75 74 75 74 73 74 76 76 76 75 75 76 77 79 83 84 82 81 84 88 91 92 92 92 89 90 96 98 96 95 98 101 101 99 97 94 92 90 89 87 85 83 79
57 58 60 62 63 63 65 65 66 66 65 62 61 61 62 62 62 62 63 64 65 66 66 67 67 68 67 66 65 64 63 62 62 63 63 64 65 65 65 66 67 69 71 72 74 74 73 73 72 72 74 76 75 73 74 75 75 77 80 82 82 81 81 84 88 91 92 94 96 93 92 97 97 96 98 101 102 101 100 97 95 93 90 85 83 80 77 74
59 61 63 64 64 65 66 66 67 66 65 63 63 62 62 63 63 63 65 66 68 69 69 69 69 68 67 65 64 64 63 62 62 63 63 64 65 66 66 67 69 70 71 72 73 74 73 71 71 70 71 74 75 73 75 76 75 78 80 81 82 82 83 86 89 91 90 91 96 95 95 100 99 99 100 101 103 103 100 96 93 91 88 83 80 77 75 72
61 63 65 65 65 66 67 68 68 67 66 65 65 64 63 64 64 65 67 67 69 69 69 69 68 67 66 65 65 65 65 65 66 66 66 67 68 68 68 69 69 70 71 71 72 74 74 71 70 70 68 72 75 75 75 76 76 79 80 81 82 83 84 85 89 94 91 91 96 95 97 103 103 102 103 102 103 102 97 94 92 90 85 79 75 72 71 70
63 65 66 66 66 67 68 69 68 68 68 67 66 65 65 65 65 66 67 68 69 68 67 67 66 66 68 68 68 68 68 69 70 70 70 70 71 70 68 68 69 70 70 71 71 72 74 73 72 72 70 70 73 75 76 76 77 80 81 82 84 85 86 85 89 94 90 91 97 95 97 104 103 102 104 104 102 99 96 94 91 86 79 73 71 69 67 66
65 66 66 66 67 68 69 70 69 68 69 68 67 67 67 66 67 68 69 69 68 66 66 65 66 68 69 70 70 71 71 72 73 73 72 71 70 68 68 68 69 70 69 70 70 71 73 75 76 74 71 70 71 73 76 76 78 80 81 83 84 84 85 85 88 89 85 88 94 94 97 104 103 102 104 102 99 96 94 91 86 79 72 69 69 68 66 64
66 67 67 66 67 69 70 70 69 69 69 69 69 69 68 68 69 69 69 69 68 67 66 66 67 69 71 72 72 72 72 72 73 72 71 70 69 68 68 68 69 69 69 69 70 71 72 75 78 76 72 70 71 73 75 78 80 80 80 82 83 84 85 85 86 84 82 88 93 93 99 107 105 101 100 98 96 93 89 86 80 73 69 67 66 64 63 60
68 69 68 67 69 70 70 70 69 69 70 70 69 69 69 69 70 70 70 70 70 69 66 66 68 70 71 72 72 72 72 72 72 71 70 69 69 69 69 69 68 68 69 69 70 72 72 74 77 77 74 72 72 73 75 77 79 80 80 82 83 84 84 84 87 86 85 90 93 93 101 109 104 97 96 95 93 89 84 80 74 68 65 64 62 59 57 53
69 70 69 69 70 70 70 70 69 69 70 70 69 70 70 71 72 71 71 71 70 68 67 67 68 69 71 71 72 72 72 72 71 69 69 69 69 69 68 67 68 68 69 70 71 72 73 74 76 77 74 73 72 73 74 76 77 78 79 80 81 81 80 83 88 90 89 93 93 93 102 108 101 93 93 92 89 85 81 76 71 66 63 61 60 57 52 48
70 71 71 71 71 71 71 70 69 70 70 70 70 72 72 72 72 71 71 70 68 67 67 68 68 68 70 71 72 72 71 70 69 69 69 69 69 68 66 67 68 69 71 71 71 72 72 75 78 77 74 72 71 72 74 75 77 78 77 78 79 79 78 81 85 87 90 94 93 95 103 106 97 91 91 89 87 85 80 73 67 64 62 61 60 57 51 47
73 73 73 72 72 72 72 71 70 71 71 72 73 73 73 73 73 72 70 68 66 66 67 67 67 67 70 71 72 71 70 68 68 69 69 69 68 67 67 68 68 70 71 71 71 72 73 76 77 77 77 75 73 72 73 74 76 78 77 78 78 76 76 80 83 86 89 91 91 96 102 101 96 91 89 87 86 85 79 69 62 61 62 61 60 57 52 48
75 75 75 74 74 74 74 73 72 73 74 75 75 74 74 74 73 71 68 65 65 67 68 68 68 68 69 70 70 69 68 67 68 69 69 67 67 67 67 68 68 69 70 70 71 72 73 75 74 74 77 78 77 76 75 77 79 79 79 78 74 73 76 80 83 86 89 90 93 96 97 97 95 91 88 87 86 84 77 67 60 59 59 59 59 57 52 50
77 78 77 76 76 76 75 74 74 75 75 77 77 75 74 73 70 67 65 64 66 68 70 70 70 68 68 68 67 67 67 67 67 68 67 65 65 67 68 68 69 69 69 69 70 71 73 73 72 72 74 76 78 77 76 79 80 80 79 76 72 74 78 79 82 86 87 90 95 93 90 93 95 90 88 87 85 81 73 66 63 59 57 56 55 53 52 51
80 80 79 78 78 78 77 76 76 76 77 77 76 74 72 70 67 65 65 66 68 70 71 71 69 67 66 67 67 67 68 67 65 65 64 64 65 67 68 68 69 68 68 68 70 71 72 72 72 72 73 75 77 75 74 77 79 80 78 72 71 75 77 77 81 85 84 88 94 90 84 89 91 87 87 86 83 79 71 66 65 61 59 57 53 50 50 51
83 82 81 80 80 79 78 77 77 78 79 76 74 72 70 68 67 67 67 68 69 69 69 68 65 64 65 67 67 67 67 65 63 62 63 65 66 68 68 67 67 67 67 68 68 69 71 71 72 72 72 74 75 74 74 76 78 78 73 69 71 75 75 77 81 82 81 84 89 87 82 85 87 84 84 84 81 75 67 64 64 62 61 60 57 54 53 53
85 85 83 81 81 80 79 79 80 80 78 75 73 71 69 67 67 68 69 68 68 67 66 64 63 64 66 67 66 65 64 62 62 63 64 65 66 66 66 66 66 66 66 66 67 68 70 70 71 73 73 72 73 73 74 76 78 76 69 67 71 73 74 76 79 79 79 81 83 82 82 83 83 81 81 81 76 67 61 62 62 62 62 61 60 60 58 58
87 86 84 83 82 81 81 81 79 77 75 74 72 69 66 66 66 67 67 67 67 66 64 63 64 65 65 65 63 63 63 63 64 64 64 65 65 65 64 64 65 66 66 65 66 68 70 71 72 73 73 71 70 71 73 75 78 74 67 65 69 71 73 76 78 79 79 79 79 80 82 83 81 78 77 76 70 61 56 60 61 60 62 63 63 63 62 63
88 88 86 85 85 83 80 78 75 75 77 75 70 67 66 66 66 67 68 68 68 65 63 62 62 62 62 61 61 63 64 65 66 66 66 65 64 64 64 64 66 67 66 65 65 67 70 71 71 72 74 72 69 70 72 74 75 71 64 64 68 71 74 76 77 78 77 76 77 79 82 82 79 77 73 70 65 56 52 57 60 60 61 63 64 65 64 65
90 90 88 86 84 79 75 74 77 82 81 74 68 67 67 67 68 70 70 69 68 64 62 61 60 60 60 61 63 65 67 67 68 68 68 66 64 64 64 65 66 66 65 64 65 67 69 70 71 72 74 72 68 70 73 73 72 66 60 63 69 72 75 75 76 77 74 71 74 78 79 79 76 73 70 68 64 53 47 53 61 62 63 64 63 65 65 64
Wind_Direction
298 301 305 309 313 316 319 321 323 323 325 327 330 331 332 332 331 331 330 329 329 329 330 331 333 335 336 334 332 332 333 335 335 333 331 326 316 308 307 311 314 314 316 318 316 313 314 315 316 314 310 310 310 312 313 316 320 323 325 327 330 329 329 331 330 329 328 327 326 327 329 330 331 333 331 331 332 333 335 335 334 332 331 331 332 335 336 336
297 300 305 309 312 315 317 318 319 320 322 325 329 330 330 330 330 329 328 328 328 328 327 328 329 331 333 332 329 326 326 329 330 330 331 327 318 309 305 309 312 314 315 317 316 313 314 315 316 315 312 312 312 314 312 312 317 320 323 325 326 326 326 328 327 326 326 326 325 325 327 327 327 330 329 327 327 328 329 331 331 331 330 329 329 330 331 331
296 299 303 307 310 312 314 316 317 318 321 324 327 328 328 328 329 328 327 327 326 326 326 326 326 326 326 326 323 319 317 322 325 324 325 325 320 312 307 307 310 312 313 314 313 311 312 313 316 313 312 314 315 316 313 312 315 318 321 322 322 323 322 324 324 323 324 324 323 323 324 325 323 326 328 325 323 323 324 325 325 327 328 327 326 326 327 327
295 298 303 305 308 310 312 314 316 318 320 324 326 326 326 327 327 326 325 326 326 326 326 325 324 323 322 322 320 314 309 313 318 317 318 319 317 312 308 306 306 309 310 310 309 310 312 314 314 311 311 313 315 317 315 314 315 316 319 321 322 322 320 321 322 321 321 321 321 321 322 323 322 324 327 324 320 321 322 321 322 323 324 323 322 321 322 323
295 299 301 304 306 309 312 314 316 318 321 323 324 324 325 326 325 325 326 326 326 326 326 325 324 323 323 322 320 314 305 305 309 311 313 313 310 308 307 305 306 308 309 309 310 312 315 315 313 311 311 312 315 317 317 316 317 317 319 321 322 322 321 321 321 320 320 319 318 318 320 321 322 323 327 324 320 321 321 319 320 320 320 320 318 317 316 317
295 298 300 303 306 309 312 314 317 320 321 321 322 323 325 325 326 326 326 326 326 326 327 327 327 326 325 324 321 316 307 301 302 306 308 307 305 304 305 305 306 308 310 311 312 315 318 317 315 314 313 314 316 317 318 320 320 319 320 320 320 322 322 322 321 319 319 320 317 317 319 320 321 322 327 325 321 321 321 320 319 318 318 318 317 315 313 313
294 297 300 303 306 310 313 316 319 320 319 320 321 324 325 325 325 325 325 326 326 327 328 329 329 328 327 326 323 317 310 301 297 299 302 302 301 301 301 302 305 309 313 315 316 317 318 318 318 318 317 317 318 319 320 322 322 321 320 320 319 320 322 321 321 319 319 319 317 317 318 319 320 321 325 323 319 320 321 322 320 318 318 318 318 315 313 312
294 297 301 304 308 312 315 318 319 319 319 320 322 324 324 324 324 324 325 325 325 326 327 328 329 329 327 326 324 319 313 304 296 294 297 298 298 297 297 300 305 309 314 317 318 319 320 321 320 320 319 319 320 321 322 323 323 322 321 321 320 319 320 321 321 319 318 318 317 316 317 319 320 321 325 322 319 320 322 323 322 320 319 319 317 315 312 310
294 298 302 306 310 314 316 317 317 318 319 321 322 322 322 322 322 323 323 323 324 324 326 327 327 327 326 325 325 321 315 309 300 295 295 296 295 294 296 301 305 309 314 317 318 320 321 322 321 320 320 320 322 323 324 325 324 323 322 323 323 321 321 321 321 319 318 317 316 316 317 319 320 322 325 323 320 321 322 323 322 320 319 318 315 312 310 307
296 300 304 308 312 314 315 315 316 318 319 320 320 320 320 321 321 322 322 322 323 323 325 326 325 325 325 324 324 322 317 312 307 300 296 294 294 295 297 302 307 311 315 317 318 319 321 321 321 321 321 323 324 325 326 326 325 324 324 325 325 323 322 321 321 320 318 316 316 316 317 318 321 323 323 321 320 321 322 322 321 319 318 317 315 312 309 305
298 302 306 310 312 313 313 314 315 317 318 318 318 318 318 320 321 322 323 323 323 324 325 326 325 324 323 322 321 320 317 313 310 304 299 297 298 300 303 308 311 314 316 317 317 319 321 322 322 322 323 324 325 326 327 326 325 325 325 326 325 324 323 322 321 320 319 317 316 316 316 318 321 322 320 319 320 320 321 322 321 320 320 319 318 317 314 310
299 303 307 310 311 311 312 312 314 315 317 317 316 316 317 319 321 323 324 325 325 325 325 326 325 324 323 321 320 319 317 312 308 306 304 304 306 309 312 315 316 315 316 316 317 320 321 322 321 321 323 325 325 326 327 327 326 325 326 326 325 325 323 322 321 320 318 316 315 314 315 317 317 318 318 318 318 318 320 321 321 320 320 319 320 320 318 313
299 303 306 308 309 310 310 311 312 314 315 315 314 315 316 318 319 322 325 326 326 325 324 324 324 324 323 323 322 320 319 315 311 308 308 308 310 313 315 316 315 314 315 316 319 320 321 320 319 320 322 324 325 326 327 327 326 326 325 324 324 325 324 322 321 319 317 315 315 313 314 316 314 314 317 318 317 315 317 320 320 320 318 317 317 318 316 310
299 302 305 307 308 308 309 310 312 314 314 313 313 313 315 316 318 321 324 324 324 323 322 322 323 325 325 325 324 322 321 320 317 313 311 310 310 310 312 313 313 313 313 315 318 318 318 318 318 319 322 323 324 325 327 327 326 324 324 324 324 324 324 322 320 318 317 315 314 312 313 314 312 310 312 315 315 314 316 319 320 320 319 316 314 313 312 307
299 302 304 306 307 307 308 310 311 312 312 312 312 312 313 315 318 320 322 322 321 320 320 321 324 326 326 326 323 320 319 318 316 313 311 310 308 309 309 309 310 310 310 312 315 315 317 317 317 320 322 323 324 326 327 326 324 323 323 323 323 322 322 322 319 316 315 314 313 312 312 314 312 310 310 313 315 314 317 319 320 321 319 316 312 309 307 304
299 302 304 306 307 307 308 309 310 310 310 310 311 312 313 316 318 320 320 320 319 319 319 321 323 324 325 324 320 316 314 313 312 311 310 308 307 307 307 306 307 307 308 310 313 315 316 317 318 320 322 323 324 325 324 323 322 322 322 322 322 321 320 320 318 315 315 314 313 311 312 313 312 311 310 313 314 313 316 318 319 321 319 316 311 308 305 301
300 302 304 305 306 307 307 308 309 309 308 309 310 312 315 317 319 321 321 319 318 318 319 320 320 320 321 319 316 314 311 310 310 308 306 305 304 304 303 304 305 305 305 308 312 315 316 317 318 321 322 323 323 322 321 320 319 319 320 320 320 320 320 320 318 316 315 314 313 311 312 313 313 313 312 313 314 312 315 318 319 320 318 314 310 306 303 300
299 302 303 304 305 306 307 307 307 307 308 309 311 313 316 318 319 321 322 320 317 315 315 316 316 317 318 317 316 313 310 308 306 304 303 301 301 301 301 302 303 303 305 310 314 317 318 318 318 321 322 322 322 321 320 319 318 318 319 319 319 319 319 320 318 316 315 315 314 312 314 314 314 316 315 314 314 313 316 318 319 320 316 312 308 305 303 299
299 300 302 303 305 306 306 306 306 306 307 309 311 313 315 317 318 320 320 319 315 313 313 314 314 315 317 317 316 314 312 309 305 303 301 300 300 300 300 301 304 304 306 312 317 319 320 318 317 319 320 321 321 321 321 320 319 319 319 319 319 318 318 318 317 316 315 315 315 313 313 314 315 318 316 315 316 317 318 318 319 318 313 309 307 305 303 300
298 299 301 302 304 306 305 305 305 306 307 309 311 312 313 314 315 316 317 317 315 312 313 314 315 316 317 317 316 315 314 311 308 306 304 303 303 302 302 303 307 309 310 314 318 320 320 317 317 318 319 320 320 321 321 320 319 319 318 318 318 316 317 317 316 315 314 314 313 312 311 312 315 319 317 317 319 320 319 317 317 314 310 308 307 305 304 302
297 299 301 303 304 305 304 304 305 306 307 309 311 312 312 313 315 315 316 317 317 315 315 315 315 316 316 318 317 315 314 311 309 308 307 306 305 305 306 306 309 312 312 314 317 320 320 318 318 318 319 320 320 320 320 319 318 318 318 318 317 315 315 316 315 315 314 312 312 311 309 310 315 317 317 319 321 321 319 318 317 312 309 309 308 307 306 305
297 299 302 304 304 303 303 304 306 307 308 310 311 312 313 314 315 315 315 317 318 317 317 316 315 314 315 316 316 314 313 312 310 309 309 309 308 308 307 308 309 311 311 312 316 319 320 318 318 318 319 319 319 319 319 318 318 318 318 317 315 315 315 314 314 314 313 312 313 313 310 311 315 315 317 321 321 321 319 319 317 311 309 310 308 308 308 307
297 300 302 303 302 302 303 305 306 308 309 310 310 311 312 313 314 314 313 315 317 317 317 317 316 315 314 314 313 312 311 311 311 310 309 308 309 308 308 308 309 310 310 311 314 317 318 317 317 317 318 317 318 319 318 317 317 318 318 317 316 317 316 315 314 312 312 313 315 317 314 314 315 313 317 322 322 321 319 319 315 310 310 310 308 309 308 307
298 300 301 302 301 302 304 305 307 308 309 310 310 310 311 312 312 312 312 313 315 317 317 317 316 315 313 312 313 313 311 309 309 309 308 308 309 309 309 309 308 308 308 310 313 315 316 315 315 316 316 316 318 318 317 316 316 317 318 318 318 318 317 316 316 315 313 313 315 317 316 316 316 315 320 324 322 322 321 317 312 309 310 308 307 308 306 305
297 299 300 300 301 302 304 305 307 308 309 310 310 310 310 311 310 310 310 312 314 317 317 317 316 315 313 311 311 311 311 310 310 310 310 310 310 310 310 309 309 309 309 310 312 314 315 314 315 316 316 317 318 318 317 316 316 317 318 318 318 319 318 317 318 318 316 314 314 318 318 318 318 318 323 325 323 322 319 315 311 309 309 307 306 305 303 302
296 297 298 299 301 303 304 305 306 307 309 310 311 310 310 309 309 309 309 311 314 317 317 317 316 314 312 309 308 308 309 311 311 311 311 310 310 310 310 310 310 310 311 311 312 314 314 314 315 316 316 318 318 317 317 316 317 316 317 317 318 319 318 319 320 319 320 318 317 321 321 319 319 320 323 324 323 320 317 314 312 311 309 307 305 302 300 299
294 296 297 299 301 303 304 305 305 306 309 310 311 310 309 308 308 308 309 310 314 317 317 316 315 313 310 308 306 306 307 308 309 309 310 309 309 310 310 311 311 312 313 312 313 314 314 314 315 315 317 318 317 317 316 316 316 316 317 318 319 320 319 321 321 320 321 319 320 325 322 318 319 321 323 324 322 319 316 314 313 311 309 306 303 301 299 297
293 294 296 298 300 302 302 303 305 306 309 310 311 310 308 308 307 307 308 311 314 315 315 316 315 311 310 308 306 305 305 306 307 308 308 308 309 309 310 310 311 313 314 314 315 315 314 314 314 315 316 317 316 316 316 316 317 318 320 321 320 320 320 321 320 319 320 320 322 325 322 318 318 320 323 323 321 318 317 316 314 312 309 306 304 301 299 297
292 293 295 297 298 299 301 302 304 306 309 310 310 308 307 307 307 306 308 311 313 313 314 315 314 311 310 308 306 305 305 305 306 307 307 307 307 307 309 310 311 313 315 315 315 314 313 314 314 315 315 316 316 316 317 319 320 321 321 320 319 318 319 319 318 319 319 320 323 324 321 318 317 322 326 323 322 320 318 317 314 311 308 305 302 299 297 295
291 292 293 295 296 297 299 302 304 306 308 309 308 307 306 307 306 306 308 310 311 311 312 313 311 310 310 309 307 306 306 305 305 306 306 306 306 307 309 310 312 313 314 314 314 313 313 313 314 314 315 315 316 317 318 319 320 321 321 319 318 317 317 317 317 318 318 319 323 323 322 318 319 326 327 322 321 319 316 316 313 309 306 303 300 298 297 296
289 290 291 293 294 296 299 301 303 306 308 308 307 305 306 305 304 306 309 309 309 309 310 310 309 309 309 309 308 307 306 305 304 304 304 305 306 307 308 309 310 311 311 311 311 310 310 310 311 312 314 314 315 317 318 319 320 320 320 319 317 316 316 316 317 318 318 321 325 324 322 319 321 326 324 320 320 317 314 314 312 309 306 302 301 299 298 298
287 288 290 291 293 295 298 301 303 306 307 307 305 304 305 304 303 306 308 308 308 309 309 308 307 308 308 309 309 308 307 305 304 304 305 305 306 306 308 309 309 309 309 309 308 308 308 308 310 312 314 314 315 317 316 317 319 319 319 318 318 318 318 318 320 320 319 322 325 325 321 319 323 325 321 319 319 315 314 313 310 307 304 302 301 300 299 298
286 287 288 290 292 295 298 300 302 305 306 304 304 304 304 303 304 307 308 308 308 308 308 307 306 306 307 307 308 309 308 307 306 305 305 305 306 306 307 308 308 309 309 308 308 308 308 309 311 314 315 315 316 317 316 317 318 318 319 319 320 320 319 320 321 320 320 321 323 323 319 320 325 325 319 318 318 315 313 311 307 304 302 301 302 301 301 300
284 285 287 289 291 294 297 299 302 304 304 303 303 303 303 303 305 306 306 306 307 307 306 306 306 305 304 305 306 308 308 307 306 305 304 305 304 305 306 306 307 308 308 308 307 308 308 310 313 316 317 317 317 318 318 319 319 318 319 319 319 320 318 319 320 321 321 320 322 322 320 322 326 324 319 317 316 314 311 309 306 304 305 305 305 304 302 300
283 284 286 288 291 293 296 298 300 302 302 301 301 301 302 304 305 306 306 306 306 306 305 305 305 305 303 303 304 306 307 306 306 305 304 304 303 304 305 306 307 308 308 307 307 307 308 310 314 316 317 317 318 319 318 319 318 318 318 318 318 319 318 318 319 321 320 318 320 321 320 324 326 323 320 317 316 314 311 310 308 308 309 308 306 304 302 299
282 284 286 288 290 292 295 297 299 300 300 300 300 300 302 304 304 306 306 306 306 305 304 304 304 304 303 302 303 304 305 305 305 305 304 303 303 304 305 306 306 307 307 307 307 308 308 312 314 316 317 317 317 319 318 318 318 318 318 318 318 318 318 319 320 322 319 315 318 320 320 325 326 324 321 317 315 315 313 311 311 310 311 309 307 306 303 302
282 284 286 287 290 292 294 296 297 298 298 299 299 300 302 302 303 304 305 305 305 304 303 303 302 302 303 303 304 305 305 305 305 305 304 303 303 304 305 305 305 306 306 307 308 309 309 313 315 316 317 317 316 317 316 317 318 317 317 317 317 317 318 320 321 320 316 313 316 318 320 326 327 323 321 317 316 316 313 312 312 312 313 312 310 307 305 306
281 284 285 287 289 292 294 295 295 296 297 298 298 299 300 301 301 302 304 305 305 303 302 301 301 302 303 305 306 306 306 305 305 305 304 303 303 304 304 305 305 306 306 307 308 309 310 313 315 316 316 315 315 315 314 316 317 316 317 317 318 318 319 320 321 318 315 312 315 316 319 327 328 322 319 317 316 316 314 314 315 316 316 313 310 309 307 308
281 283 285 287 289 291 292 293 293 295 296 297 298 298 299 299 300 300 302 304 304 303 301 301 302 303 304 306 306 306 305 304 304 304 304 303 303 304 304 305 306 305 306 307 308 309 310 312 313 314 315 315 314 313 313 315 315 315 317 317 319 320 319 320 321 318 313 311 313 313 317 327 329 322 319 318 317 317 316 317 318 317 315 312 310 310 309 310
281 283 285 287 288 289 290 291 292 293 296 297 297 298 298 298 298 299 301 304 305 304 303 302 303 303 304 304 304 304 303 302 302 302 302 302 302 303 304 305 305 305 306 307 308 309 310 310 311 312 313 313 313 312 313 315 314 315 317 317 318 319 318 319 319 316 312 311 313 310 314 327 330 322 318 317 316 317 317 317 318 316 313 311 309 309 310 312
282 284 285 287 287 288 289 290 291 292 295 296 296 296 297 297 298 299 301 304 305 304 303 302 302 303 303 302 302 301 300 300 301 301 301 301 302 303 304 304 304 305 306 307 307 309 309 309 309 311 312 312 312 313 314 315 315 316 317 318 319 319 319 317 316 316 315 315 314 309 313 327 329 320 317 317 316 317 317 317 317 314 312 310 309 309 311 314
282 284 285 286 286 287 288 289 290 292 294 295 295 296 296 297 297 298 300 303 304 302 301 301 302 302 302 300 299 298 298 299 300 300 300 301 301 302 302 303 304 304 305 306 307 307 308 308 308 310 312 312 312 313 314 315 315 316 317 318 319 320 319 317 315 317 318 317 316 310 313 325 327 319 316 317 315 315 316 318 318 313 312 310 309 310 312 314
281 283 284 285 286 287 287 288 289 292 293 294 294 295 296 296 296 297 299 301 301 299 299 301 302 300 299 297 296 296 297 298 298 299 299 300 300 301 302 302 303 304 304 306 306 307 307 307 308 309 310 311 312 313 314 315 315 315 316 317 319 320 319 316 316 317 316 317 317 311 312 322 324 317 315 315 313 314 319 322 320 315 314 312 309 310 312 314
281 282 284 285 285 286 287 287 289 291 293 293 294 295 295 295 295 297 298 298 298 299 299 300 300 298 296 295 294 295 296 296 296 297 298 299 300 301 301 302 302 303 304 305 306 307 307 308 309 310 311 311 312 313 314 314 313 313 315 317 320 321 317 315 317 317 315 316 316 312 312 318 320 316 315 315 314 317 322 324 320 316 317 315 312 310 311 312
280 282 283 284 285 285 286 287 288 290 292 293 293 293 293 294 295 296 296 296 297 298 298 298 298 297 295 294 293 293 293 293 294 296 297 298 299 300 301 301 302 303 304 305 305 306 307 308 309 310 311 312 313 315 316 315 313 313 316 319 321 321 318 318 320 318 314 315 318 316 313 315 317 315 315 316 316 320 323 322 317 316 317 316 314 312 311 310
279 281 283 284 284 285 285 286 288 290 291 292 292 293 294 295 295 294 294 296 297 298 297 297 297 295 293 292 291 290 291 292 293 294 296 297 299 300 300 301 302 303 303 303 304 305 306 308 308 309 310 311 312 315 317 316 316 316 317 321 323 321 320 321 321 318 315 314 318 319 314 313 316 316 316 318 319 321 322 319 316 317 318 317 315 313 313 312
279 280 282 283 284 284 285 287 288 290 291 292 293 294 295 294 293 293 293 295 296 296 296 296 295 293 291 290 289 289 290 291 292 293 296 298 299 300 300 301 302 302 302 303 304 305 306 307 308 308 310 311 312 314 316 316 316 317 319 323 323 321 322 322 321 318 314 313 317 319 316 314 315 315 317 319 320 321 321 317 315 318 319 318 317 316 316 315
278 280 281 282 283 285 286 287 289 290 291 292 293 294 293 291 290 290 291 292 293 295 295 295 293 290 289 288 288 289 289 290 292 294 297 299 299 300 300 300 301 301 302 303 304 305 306 307 307 307 310 312 313 314 316 316 316 317 320 323 322 321 323 322 320 317 313 312 317 318 315 314 314 315 318 319 320 323 320 314 315 317 317 317 317 318 319 316
278 279 281 282 283 284 286 287 289 289 290 291 291 291 290 287 286 287 288 290 292 293 293 293 291 289 288 287 287 288 290 292 294 296 298 299 299 299 299 300 300 301 302 303 304 305 305 306 306 307 310 313 313 313 316 317 317 318 321 322 320 322 323 321 319 316 312 314 318 316 311 311 313 316 318 318 320 324 319 313 314 315 314 315 316 317 318 315
278 279 281 282 283 284 286 287 287 288 289 290 290 289 286 284 284 286 288 289 290 291 291 291 289 287 286 286 288 290 292 294 296 297 298 298 298 298 299 300 301 302 302 303 304 305 305 306 307 308 310 312 312 313 315 317 318 320 322 321 319 321 321 319 319 316 313 315 318 313 309 311 314 317 318 317 321 326 321 314 315 315 314 315 315 315 315 313
278 280 281 282 284 285 284 284 283 285 289 289 287 285 283 282 284 286 286 287 289 290 291 290 288 286 286 287 289 291 293 295 296 297 297 297 298 298 299 300 301 301 302 303 304 304 304 306 307 307 309 311 312 312 315 317 318 320 322 320 317 319 319 319 320 317 314 316 317 312 311 315 318 320 319 317 320 326 323 316 316 317 316 316 314 313 313 312
278 279 280 282 282 282 281 280 282 285 287 286 283 281 280 280 282 284 285 286 288 289 290 290 288 285 285 287 289 292 294 296 296 296 297 297 298 298 299 300 300 300 301 303 304 304 304 305 307 307 308 311 313 313 314 318 319 321 322 318 316 318 318 319 320 318 315 317 317 313 314 319 320 320 319 318 319 325 325 318 317 318 317 314 313 312 311 311
Height
5904 5904 5903 5903 5902 5901 5900 5899 5898 5897 5896 5896 5896 5894 5893 5892 5891 5890 5888 5886 5885 5883 5881 5880 5878 5876 5874 5871 5869 5868 5866 5864 5862 5861 5859 5858 5857 5856 5855 5855 5853 5852 5851 5850 5849 5848 5848 5846 5844 5842 5841 5840 5838 5838 5837 5834 5832 5831 5829 5828 5827 5824 5820 5818 5816 5814 5813 5812 5810 5809 5808 5806 5805 5804 5801 5797 5794 5793 5791 5788 5787 5785 5783 5782 5779 5776 5773 5771
5904 5903 5903 5902 5901 5900 5899 5898 5897 5896 5895 5895 5895 5893 5892 5891 5890 5888 5887 5885 5883 5882 5880 5878 5876 5875 5873 5871 5868 5866 5865 5863 5861 5860 5858 5857 5856 5855 5854 5853 5852 5851 5850 5849 5848 5847 5846 5845 5843 5840 5839 5838 5837 5836 5835 5833 5831 5829 5828 5826 5825 5824 5820 5817 5815 5812 5810 5809 5808 5805 5805 5803 5802 5802 5800 5797 5793 5791 5789 5787 5784 5782 5780 5778 5776 5774 5771 5768
5903 5902 5902 5901 5900 5899 5898 5897 5896 5895 5894 5894 5894 5893 5891 5890 5888 5887 5885 5883 5882 5880 5878 5876 5875 5873 5872 5870 5867 5865 5863 5862 5860 5858 5857 5856 5854 5853 5853 5852 5851 5850 5849 5848 5847 5846 5845 5843 5841 5839 5837 5836 5835 5834 5833 5831 5830 5828 5826 5825 5824 5823 5819 5816 5813 5810 5807 5806 5805 5803 5803 5801 5798 5798 5797 5794 5792 5789 5787 5785 5783 5780 5778 5775 5772 5771 5768 5766
5902 5901 5901 5900 5899 5898 5897 5896 5895 5894 5893 5893 5892 5891 5890 5889 5887 5885 5883 5882 5880 5878 5876 5874 5872 5871 5869 5867 5865 5863 5861 5860 5859 5857 5856 5855 5854 5852 5851 5850 5849 5848 5847 5846 5845 5844 5843 5841 5839 5837 5835 5834 5833 5832 5831 5830 5828 5826 5825 5823 5822 5821 5818 5815 5812 5808 5805 5803 5802 5800 5800 5799 5796 5795 5794 5791 5788 5787 5784 5782 5780 5778 5776 5773 5770 5767 5765 5762
5901 5900 5899 5899 5898 5897 5896 5895 5894 5893 5892 5891 5891 5890 5888 5887 5885 5883 5882 5880 5878 5876 5874 5871 5869 5867 5866 5864 5862 5860 5858 5858 5857 5855 5854 5853 5852 5851 5850 5849 5847 5846 5845 5844 5843 5842 5841 5839 5837 5835 5834 5833 5831 5830 5829 5828 5826 5825 5823 5822 5820 5819 5817 5814 5811 5807 5803 5800 5798 5796 5797 5796 5794 5792 5792 5787 5783 5784 5782 5779 5778 5775 5773 5771 5768 5765 5762 5759
5899 5899 5898 5897 5897 5896 5895 5894 5893 5892 5890 5889 5889 5888 5886 5885 5883 5881 5880 5878 5876 5874 5871 5869 5866 5864 5862 5861 5859 5857 5856 5855 5854 5853 5852 5851 5850 5849 5848 5847 5845 5844 5843 5842 5841 5840 5839 5837 5835 5834 5832 5831 5830 5829 5827 5826 5824 5822 5821 5820 5818 5817 5815 5812 5810 5806 5801 5798 5793 5792 5793 5793 5791 5790 5789 5784 5779 5779 5778 5776 5774 5772 5769 5767 5765 5762 5758 5755
5898 5897 5897 5896 5895 5895 5894 5893 5892 5891 5889 5888 5887 5886 5884 5883 5881 5880 5878 5876 5874 5871 5869 5866 5864 5861 5859 5858 5856 5854 5853 5852 5851 5850 5850 5849 5848 5847 5846 5845 5844 5842 5841 5840 5839 5838 5837 5835 5833 5831 5830 5829 5828 5826 5825 5823 5821 5819 5818 5817 5815 5813 5813 5810 5808 5804 5799 5796 5790 5787 5788 5789 5788 5787 5787 5782 5776 5775 5774 5772 5770 5767 5765 5762 5760 5758 5754 5751
5897 5896 5896 5895 5894 5893 5892 5891 5890 5889 5887 5886 5884 5883 5882 5881 5879 5878 5876 5874 5872 5869 5867 5864 5862 5859 5857 5855 5853 5851 5850 5849 5848 5848 5847 5847 5846 5845 5844 5843 5842 5841 5839 5838 5837 5836 5835 5833 5831 5829 5828 5826 5825 5824 5823 5821 5819 5816 5815 5814 5812 5810 5809 5807 5805 5802 5797 5794 5788 5784 5784 5785 5784 5783 5783 5779 5774 5772 5770 5768 5766 5763 5761 5758 5755 5753 5750 5747
5895 5895 5894 5893 5893 5891 5891 5890 5889 5887 5886 5884 5882 5881 5880 5878 5877 5876 5874 5872 5870 5867 5865 5862 5860 5857 5855 5853 5852 5850 5848 5847 5846 5845 5845 5844 5843 5843 5842 5841 5840 5839 5838 5837 5836 5834 5833 5831 5828 5826 5825 5824 5823 5822 5820 5818 5816 5813 5811 5810 5808 5806 5806 5803 5801 5799 5795 5792 5786 5781 5781 5782 5782 5780 5779 5776 5771 5769 5767 5765 5763 5760 5757 5754 5751 5747 5745 5742
5894 5893 5893 5892 5891 5890 5889 5887 5886 5885 5884 5882 5880 5879 5878 5876 5875 5873 5872 5870 5868 5865 5863 5860 5857 5855 5853 5851 5850 5848 5846 5845 5843 5843 5842 5841 5841 5840 5840 5839 5837 5836 5835 5834 5833 5832 5830 5828 5826 5824 5822 5821 5820 5819 5818 5815 5812 5810 5807 5805 5803 5801 5801 5799 5798 5796 5792 5789 5784 5778 5778 5780 5779 5777 5775 5772 5769 5766 5764 5762 5759 5756 5753 5749 5746 5743 5739 5736
5893 5892 5891 5890 5889 5888 5887 5885 5884 5883 5882 5880 5878 5877 5875 5874 5873 5871 5870 5868 5866 5863 5861 5858 5855 5852 5850 5849 5848 5846 5844 5843 5842 5841 5839 5839 5838 5838 5837 5836 5835 5833 5832 5831 5830 5829 5827 5825 5823 5821 5819 5818 5817 5815 5814 5811 5808 5805 5803 5801 5799 5796 5795 5794 5792 5791 5788 5786 5782 5776 5774 5777 5777 5774 5771 5769 5766 5763 5760 5759 5755 5752 5749 5746 5742 5739 5735 5731
5891 5890 5890 5889 5887 5886 5885 5883 5882 5881 5879 5878 5876 5875 5873 5872 5871 5869 5867 5866 5864 5861 5859 5857 5853 5850 5848 5847 5846 5844 5843 5841 5840 5839 5838 5837 5836 5835 5834 5833 5831 5830 5828 5827 5826 5825 5823 5822 5819 5817 5816 5814 5812 5810 5808 5806 5803 5800 5798 5797 5795 5793 5790 5789 5787 5786 5783 5781 5780 5776 5772 5776 5776 5770 5766 5765 5762 5759 5756 5754 5751 5749 5745 5742 5739 5735 5731 5725
5889 5888 5888 5887 5886 5884 5883 5882 5880 5879 5877 5876 5874 5873 5871 5870 5869 5867 5865 5864 5862 5860 5857 5855 5852 5848 5845 5844 5843 5842 5840 5839 5838 5837 5836 5835 5834 5833 5831 5830 5828 5826 5825 5824 5823 5822 5820 5818 5815 5813 5812 5810 5807 5805 5803 5800 5798 5795 5793 5792 5791 5790 5787 5785 5783 5781 5778 5775 5776 5774 5769 5773 5775 5768 5762 5760 5757 5754 5752 5750 5747 5745 5742 5739 5735 5731 5727 5721
5887 5886 5885 5885 5884 5882 5881 5880 5878 5877 5875 5873 5872 5871 5869 5868 5866 5865 5863 5861 5860 5857 5855 5853 5850 5847 5843 5841 5840 5838 5837 5836 5835 5834 5833 5832 5831 5830 5828 5827 5825 5823 5822 5821 5820 5818 5817 5815 5812 5810 5808 5805 5802 5800 5797 5795 5792 5790 5788 5786 5785 5785 5785 5782 5778 5777 5775 5770 5770 5770 5765 5767 5771 5768 5761 5755 5752 5749 5747 5746 5742 5740 5738 5735 5731 5726 5722 5716
5884 5883 5883 5882 5882 5880 5879 5877 5876 5874 5873 5871 5869 5868 5867 5865 5863 5862 5860 5858 5857 5855 5853 5851 5848 5845 5842 5839 5837 5836 5835 5834 5833 5832 5831 5830 5828 5827 5825 5824 5822 5820 5818 5818 5817 5815 5813 5810 5807 5805 5802 5799 5796 5794 5792 5789 5787 5785 5783 5782 5780 5779 5781 5780 5776 5772 5771 5767 5764 5764 5761 5761 5763 5765 5761 5752 5747 5743 5741 5741 5737 5734 5732 5728 5725 5721 5716 5710
5881 5881 5880 5880 5879 5878 5876 5875 5873 5872 5870 5868 5867 5865 5863 5861 5860 5858 5857 5855 5854 5852 5849 5848 5845 5843 5840 5838 5835 5833 5832 5831 5830 5829 5828 5827 5826 5824 5822 5820 5819 5817 5815 5814 5813 5811 5809 5806 5802 5800 5796 5793 5791 5789 5787 5785 5783 5781 5778 5777 5776 5775 5775 5776 5774 5768 5765 5762 5760 5758 5755 5754 5756 5758 5758 5751 5742 5736 5734 5734 5732 5728 5725 5721 5717 5713 5708 5703
5879 5878 5878 5877 5876 5875 5873 5872 5870 5869 5867 5865 5864 5862 5860 5858 5856 5855 5854 5852 5850 5848 5846 5845 5843 5841 5839 5836 5833 5831 5830 5828 5827 5826 5825 5824 5823 5822 5820 5817 5816 5813 5811 5810 5809 5807 5804 5800 5797 5794 5790 5787 5785 5784 5783 5781 5779 5777 5775 5773 5771 5770 5767 5767 5768 5764 5760 5756 5753 5754 5751 5748 5748 5750 5750 5747 5740 5733 5729 5726 5725 5722 5718 5714 5710 5706 5701 5695
5876 5876 5875 5874 5873 5872 5870 5869 5867 5866 5864 5862 5860 5858 5856 5854 5853 5852 5850 5849 5847 5845 5844 5842 5841 5839 5836 5834 5831 5829 5827 5826 5824 5823 5822 5821 5820 5818 5816 5814 5812 5809 5807 5806 5804 5802 5799 5795 5791 5789 5786 5782 5780 5778 5777 5775 5773 5772 5770 5768 5766 5766 5763 5758 5756 5757 5756 5752 5746 5744 5746 5744 5743 5745 5743 5740 5736 5731 5726 5720 5717 5713 5709 5705 5702 5699 5694 5687
5873 5873 5872 5871 5870 5869 5867 5865 5864 5863 5861 5859 5856 5854 5852 5851 5850 5850 5849 5847 5845 5843 5841 5840 5838 5836 5833 5831 5828 5826 5824 5823 5822 5820 5819 5818 5817 5815 5812 5810 5808 5805 5803 5801 5799 5796 5793 5790 5787 5785 5782 5778 5775 5773 5771 5768 5766 5764 5763 5761 5759 5758 5760 5756 5749 5747 5745 5745 5743 5736 5737 5737 5738 5740 5738 5734 5732 5728 5722 5717 5711 5704 5699 5696 5694 5691 5687 5682
5871 5870 5868 5867 5866 5865 5863 5862 5860 5859 5857 5855 5853 5851 5849 5848 5847 5847 5847 5845 5842 5840 5838 5836 5834 5831 5829 5827 5825 5822 5821 5819 5818 5816 5815 5814 5813 5811 5808 5806 5803 5801 5798 5796 5793 5790 5788 5786 5783 5780 5778 5775 5771 5767 5765 5761 5759 5758 5755 5755 5752 5749 5752 5752 5746 5743 5737 5734 5735 5732 5729 5731 5733 5734 5731 5727 5727 5724 5716 5711 5707 5698 5690 5688 5686 5684 5681 5678
5867 5866 5865 5864 5862 5861 5860 5858 5857 5855 5853 5851 5849 5846 5844 5842 5840 5839 5839 5839 5836 5835 5834 5832 5830 5827 5825 5823 5821 5819 5817 5815 5814 5813 5811 5810 5808 5806 5804 5802 5799 5797 5794 5792 5789 5786 5783 5781 5778 5776 5773 5770 5766 5762 5760 5757 5753 5751 5748 5747 5746 5741 5742 5745 5741 5737 5732 5725 5724 5724 5720 5724 5730 5727 5724 5721 5719 5717 5709 5702 5697 5688 5683 5680 5676 5676 5674 5671
5864 5863 5862 5860 5859 5858 5856 5855 5853 5851 5848 5846 5844 5842 5840 5838 5835 5833 5832 5831 5830 5828 5827 5827 5826 5824 5822 5820 5817 5815 5813 5812 5810 5809 5808 5806 5804 5802 5800 5798 5795 5792 5790 5788 5785 5782 5779 5777 5774 5771 5769 5765 5761 5757 5754 5751 5747 5743 5741 5740 5739 5735 5732 5736 5737 5732 5726 5717 5711 5710 5707 5715 5725 5720 5718 5717 5712 5708 5702 5696 5685 5672 5674 5673 5665 5665 5666 5662
5861 5860 5858 5857 5855 5854 5853 5851 5849 5847 5844 5842 5840 5839 5836 5834 5832 5829 5827 5826 5825 5824 5822 5820 5819 5818 5817 5816 5814 5812 5810 5808 5806 5805 5804 5802 5800 5798 5796 5794 5791 5788 5786 5784 5781 5778 5775 5772 5769 5766 5764 5761 5757 5753 5748 5745 5742 5737 5734 5732 5730 5729 5723 5722 5726 5726 5725 5717 5701 5691 5692 5704 5713 5711 5713 5712 5706 5699 5693 5690 5677 5660 5663 5662 5654 5653 5653 5650
5857 5856 5855 5853 5852 5851 5849 5847 5845 5843 5841 5838 5837 5835 5833 5830 5827 5825 5823 5822 5820 5819 5817 5815 5813 5812 5811 5810 5809 5808 5807 5806 5804 5802 5801 5799 5796 5794 5792 5790 5788 5785 5782 5780 5776 5773 5771 5767 5765 5762 5758 5755 5752 5748 5742 5739 5738 5733 5728 5724 5721 5721 5716 5710 5709 5708 5713 5718 5705 5681 5674 5691 5702 5698 5700 5701 5697 5691 5683 5679 5668 5656 5655 5652 5645 5643 5638 5636
5854 5853 5852 5850 5848 5847 5846 5844 5842 5840 5837 5835 5833 5831 5829 5826 5823 5820 5819 5817 5816 5815 5813 5810 5809 5807 5806 5804 5803 5802 5802 5801 5800 5798 5796 5795 5792 5790 5788 5786 5784 5781 5777 5775 5772 5769 5766 5762 5760 5757 5752 5748 5745 5741 5736 5731 5731 5728 5723 5719 5713 5711 5708 5703 5699 5693 5692 5702 5705 5683 5660 5669 5689 5689 5685 5685 5683 5680 5673 5665 5658 5651 5648 5642 5637 5633 5626 5622
5851 5849 5848 5847 5844 5843 5841 5840 5838 5836 5833 5831 5829 5827 5825 5822 5819 5816 5814 5812 5811 5810 5808 5806 5804 5803 5801 5799 5798 5797 5795 5795 5794 5792 5790 5789 5787 5785 5782 5780 5778 5775 5772 5770 5767 5764 5762 5757 5753 5750 5746 5742 5738 5734 5729 5724 5722 5720 5717 5714 5709 5703 5698 5695 5690 5684 5680 5681 5690 5685 5657 5645 5664 5677 5673 5670 5669 5667 5661 5652 5645 5641 5635 5630 5624 5618 5613 5609
5847 5846 5844 5843 5841 5839 5837 5835 5834 5831 5829 5827 5825 5823 5820 5818 5814 5812 5810 5807 5807 5806 5803 5801 5800 5798 5796 5794 5793 5791 5790 5789 5787 5786 5784 5782 5780 5779 5776 5774 5772 5769 5766 5765 5762 5759 5755 5752 5747 5743 5740 5736 5732 5728 5723 5719 5716 5713 5709 5705 5702 5695 5689 5687 5681 5676 5674 5671 5676 5682 5662 5637 5644 5660 5658 5656 5655 5650 5645 5637 5630 5627 5618 5611 5606 5598 5594 5589
5843 5842 5840 5839 5837 5835 5833 5831 5829 5827 5825 5823 5821 5819 5816 5814 5810 5808 5806 5804 5803 5801 5798 5797 5795 5792 5791 5789 5787 5786 5785 5784 5781 5780 5778 5776 5774 5772 5770 5769 5767 5764 5761 5759 5756 5753 5749 5746 5743 5738 5736 5732 5726 5721 5716 5712 5707 5703 5700 5696 5694 5688 5683 5680 5675 5671 5669 5664 5666 5672 5660 5636 5634 5649 5646 5641 5643 5633 5624 5619 5609 5603 5597 5589 5585 5578 5573 5568
5839 5837 5836 5834 5833 5831 5829 5827 5825 5823 5821 5819 5817 5815 5812 5810 5806 5805 5803 5801 5799 5796 5795 5794 5791 5788 5786 5784 5782 5781 5780 5779 5777 5774 5771 5770 5768 5767 5764 5763 5761 5758 5756 5753 5750 5747 5742 5739 5737 5733 5730 5726 5720 5714 5707 5702 5696 5692 5690 5689 5688 5683 5679 5676 5669 5665 5665 5662 5662 5661 5651 5630 5623 5640 5635 5621 5624 5614 5603 5601 5591 5584 5580 5574 5569 5563 5559 5555
5834 5833 5831 5829 5828 5826 5824 5823 5821 5819 5817 5815 5813 5810 5808 5806 5803 5801 5800 5797 5794 5791 5791 5790 5787 5785 5782 5780 5778 5777 5776 5774 5772 5769 5766 5764 5763 5761 5758 5757 5755 5752 5751 5748 5744 5741 5737 5734 5730 5727 5725 5721 5715 5709 5701 5695 5690 5686 5682 5679 5680 5678 5675 5673 5668 5661 5657 5661 5663 5654 5643 5622 5607 5620 5622 5606 5606 5601 5591 5589 5581 5573 5568 5559 5553 5548 5544 5542
5830 5828 5827 5825 5823 5821 5819 5818 5816 5815 5813 5810 5808 5806 5804 5801 5799 5798 5796 5793 5789 5787 5787 5784 5782 5781 5778 5776 5774 5772 5772 5769 5767 5765 5762 5759 5758 5756 5754 5752 5751 5749 5747 5745 5741 5737 5733 5730 5727 5724 5722 5717 5712 5707 5698 5691 5685 5679 5675 5669 5666 5666 5665 5665 5663 5657 5648 5649 5656 5646 5632 5620 5606 5606 5606 5597 5594 5588 5580 5576 5567 5559 5552 5543 5537 5533 5532 5529
5825 5823 5822 5819 5817 5816 5814 5813 5811 5810 5808 5806 5804 5802 5799 5796 5795 5795 5793 5789 5785 5782 5781 5779 5776 5775 5772 5770 5769 5767 5766 5764 5762 5760 5756 5754 5752 5750 5748 5745 5744 5742 5741 5739 5736 5734 5729 5725 5723 5719 5716 5709 5704 5702 5696 5691 5685 5673 5667 5661 5653 5646 5644 5646 5646 5644 5638 5637 5646 5640 5620 5613 5612 5604 5592 5587 5583 5574 5568 5564 5556 5550 5540 5531 5527 5521 5521 5520
5819 5818 5816 5814 5813 5811 5809 5808 5807 5805 5804 5802 5799 5797 5794 5791 5790 5790 5787 5784 5780 5777 5776 5774 5771 5769 5766 5764 5763 5761 5760 5758 5756 5753 5750 5748 5745 5743 5741 5739 5737 5734 5733 5731 5727 5726 5722 5717 5714 5711 5708 5702 5695 5691 5685 5684 5681 5669 5657 5650 5643 5633 5625 5627 5630 5628 5626 5628 5639 5639 5619 5607 5610 5603 5586 5580 5577 5568 5562 5557 5549 5543 5534 5526 5521 5513 5508 5507
5814 5812 5811 5809 5808 5806 5804 5803 5802 5800 5799 5797 5795 5792 5790 5788 5786 5785 5782 5779 5776 5773 5771 5768 5765 5763 5761 5759 5757 5756 5754 5752 5750 5747 5745 5742 5739 5737 5735 5733 5731 5728 5725 5724 5720 5720 5717 5712 5708 5703 5696 5692 5688 5681 5674 5673 5672 5665 5656 5645 5639 5633 5621 5616 5618 5614 5608 5609 5621 5627 5617 5607 5604 5596 5582 5572 5569 5561 5553 5548 5538 5531 5527 5521 5515 5508 5501 5497
5808 5807 5805 5804 5802 5801 5799 5798 5797 5795 5793 5792 5790 5787 5786 5784 5782 5779 5775 5773 5770 5767 5765 5762 5759 5757 5754 5753 5752 5750 5749 5746 5744 5742 5739 5737 5734 5732 5730 5727 5725 5722 5718 5716 5714 5714 5713 5709 5707 5702 5693 5683 5680 5674 5665 5664 5663 5659 5655 5645 5637 5633 5621 5612 5613 5610 5598 5591 5599 5606 5603 5604 5601 5591 5579 5563 5557 5552 5541 5534 5527 5518 5516 5512 5504 5498 5492 5487
5802 5801 5800 5798 5797 5796 5794 5792 5791 5790 5788 5786 5784 5783 5782 5780 5777 5774 5769 5767 5764 5761 5758 5756 5753 5750 5748 5747 5746 5745 5743 5740 5739 5737 5733 5731 5728 5726 5725 5721 5718 5716 5712 5709 5705 5704 5707 5707 5703 5699 5694 5680 5673 5670 5660 5654 5652 5648 5648 5641 5632 5628 5618 5605 5600 5601 5592 5578 5583 5589 5585 5589 5589 5579 5570 5555 5544 5540 5531 5523 5517 5508 5502 5496 5489 5483 5476 5470
5796 5795 5794 5792 5791 5790 5788 5787 5786 5784 5783 5780 5778 5778 5777 5774 5772 5768 5764 5761 5759 5756 5753 5750 5747 5745 5742 5741 5740 5739 5736 5733 5732 5730 5727 5724 5722 5720 5718 5715 5712 5709 5706 5703 5699 5694 5694 5702 5701 5693 5691 5682 5669 5663 5658 5652 5644 5637 5638 5636 5629 5624 5619 5611 5596 5587 5580 5569 5572 5579 5574 5573 5569 5556 5547 5539 5531 5527 5520 5511 5503 5495 5488 5480 5474 5469 5463 5458
5790 5788 5788 5787 5785 5784 5783 5781 5780 5779 5777 5774 5773 5772 5771 5768 5765 5762 5759 5756 5754 5751 5748 5745 5742 5739 5737 5735 5733 5732 5730 5727 5724 5722 5720 5717 5715 5714 5710 5708 5706 5702 5699 5695 5693 5688 5681 5688 5697 5691 5683 5679 5671 5658 5651 5651 5643 5631 5627 5625 5620 5613 5610 5613 5604 5583 5569 5559 5557 5563 5567 5569 5563 5546 5531 5524 5519 5511 5503 5495 5488 5482 5476 5468 5461 5457 5453 5449
5783 5782 5781 5781 5780 5778 5777 5775 5774 5773 5770 5769 5767 5766 5764 5762 5759 5756 5753 5751 5748 5746 5743 5740 5737 5733 5731 5729 5727 5725 5723 5721 5718 5715 5712 5709 5708 5707 5703 5701 5698 5695 5693 5688 5684 5684 5676 5673 5684 5688 5678 5670 5667 5657 5648 5647 5643 5633 5625 5617 5611 5605 5596 5597 5598 5579 5558 5548 5541 5539 5548 5560 5555 5538 5523 5513 5507 5499 5487 5479 5475 5470 5465 5458 5451 5447 5443 5440
5776 5774 5775 5775 5773 5771 5770 5769 5768 5766 5764 5763 5762 5760 5758 5755 5752 5749 5747 5745 5742 5740 5737 5734 5731 5728 5726 5723 5721 5720 5717 5715 5713 5709 5706 5703 5700 5700 5697 5694 5691 5686 5684 5682 5676 5676 5674 5666 5668 5678 5677 5666 5659 5652 5644 5640 5635 5629 5626 5617 5608 5602 5593 5588 5591 5583 5562 5546 5534 5521 5524 5544 5544 5526 5514 5506 5498 5493 5481 5470 5466 5461 5455 5450 5444 5439 5435 5433
5768 5767 5769 5769 5766 5765 5764 5763 5762 5760 5758 5757 5755 5753 5751 5748 5746 5743 5741 5739 5736 5734 5731 5728 5726 5723 5720 5718 5715 5714 5711 5708 5707 5703 5700 5698 5694 5693 5692 5687 5685 5680 5676 5675 5671 5667 5666 5661 5657 5662 5667 5662 5654 5648 5641 5633 5626 5619 5615 5610 5603 5596 5587 5576 5572 5574 5567 5552 5537 5517 5508 5524 5532 5516 5505 5499 5490 5484 5477 5466 5458 5452 5446 5441 5437 5434 5430 5428
5761 5760 5762 5761 5758 5758 5757 5755 5755 5753 5751 5750 5748 5746 5743 5741 5739 5736 5734 5733 5730 5728 5725 5722 5721 5718 5714 5712 5709 5707 5704 5701 5700 5697 5693 5692 5690 5687 5685 5681 5677 5674 5670 5667 5666 5662 5657 5653 5650 5652 5655 5651 5645 5641 5636 5629 5621 5615 5610 5604 5598 5592 5583 5567 5553 5551 5552 5545 5535 5518 5503 5511 5521 5509 5497 5492 5483 5475 5471 5465 5454 5445 5439 5435 5430 5428 5426 5423
5754 5753 5754 5753 5752 5751 5750 5748 5748 5746 5744 5743 5741 5739 5736 5733 5732 5730 5728 5726 5724 5722 5720 5716 5715 5712 5709 5707 5703 5700 5698 5694 5692 5691 5688 5686 5685 5681 5678 5675 5671 5667 5664 5660 5658 5655 5651 5645 5640 5642 5646 5645 5640 5635 5629 5623 5613 5607 5606 5602 5596 5590 5579 5565 5553 5542 5535 5530 5524 5508 5493 5500 5511 5503 5493 5486 5474 5466 5464 5460 5450 5440 5434 5429 5424 5423 5422 5419
5746 5746 5746 5745 5744 5743 5742 5741 5741 5739 5737 5736 5733 5731 5729 5726 5725 5723 5721 5719 5717 5715 5713 5711 5709 5707 5704 5701 5697 5694 5692 5688 5685 5685 5684 5680 5678 5675 5670 5668 5665 5662 5658 5654 5651 5647 5643 5638 5632 5628 5628 5630 5634 5632 5626 5621 5612 5601 5599 5600 5595 5586 5572 5560 5555 5544 5530 5526 5523 5502 5483 5488 5497 5490 5483 5476 5463 5456 5456 5452 5444 5436 5429 5423 5418 5417 5417 5414
5738 5737 5737 5738 5737 5736 5735 5734 5733 5732 5730 5728 5725 5724 5722 5718 5717 5716 5713 5712 5710 5708 5706 5705 5703 5701 5698 5695 5692 5688 5686 5683 5679 5677 5677 5674 5671 5668 5664 5660 5659 5657 5652 5648 5645 5641 5635 5631 5628 5622 5616 5610 5612 5617 5613 5607 5602 5594 5592 5594 5590 5580 5566 5553 5547 5537 5522 5517 5519 5503 5480 5476 5482 5477 5470 5465 5455 5449 5448 5442 5436 5431 5425 5419 5414 5411 5411 5408
5730 5728 5729 5730 5729 5728 5727 5727 5726 5725 5724 5720 5717 5716 5714 5711 5709 5708 5707 5705 5703 5701 5699 5698 5696 5694 5691 5688 5686 5683 5680 5678 5674 5670 5669 5669 5665 5662 5658 5654 5652 5650 5647 5642 5638 5634 5629 5626 5623 5619 5615 5607 5600 5603 5601 5591 5583 5577 5577 5580 5579 5569 5558 5549 5539 5527 5512 5503 5505 5504 5484 5467 5467 5465 5458 5454 5448 5442 5438 5432 5426 5424 5420 5415 5411 5407 5404 5402
5721 5721 5722 5722 5720 5719 5719 5720 5719 5717 5716 5713 5709 5708 5706 5704 5702 5701 5700 5698 5696 5694 5691 5691 5690 5687 5685 5682 5679 5677 5675 5672 5669 5665 5662 5661 5658 5655 5652 5648 5644 5642 5640 5636 5632 5627 5623 5620 5617 5613 5612 5607 5598 5596 5596 5587 5575 5567 5565 5566 5565 5558 5551 5544 5534 5522 5509 5496 5491 5493 5482 5464 5457 5455 5449 5445 5439 5434 5430 5422 5417 5416 5413 5408 5405 5403 5400 5397
5714 5713 5715 5714 5712 5711 5711 5712 5711 5708 5707 5705 5702 5700 5698 5697 5695 5693 5692 5691 5690 5688 5684 5683 5684 5681 5678 5675 5672 5670 5669 5665 5663 5660 5657 5654 5651 5647 5644 5641 5638 5635 5631 5628 5625 5621 5618 5614 5609 5606 5607 5603 5593 5587 5587 5582 5572 5563 5559 5556 5551 5547 5541 5535 5528 5517 5506 5496 5487 5479 5472 5461 5453 5449 5445 5439 5434 5429 5423 5415 5411 5409 5406 5402 5399 5397 5395 5391
5706 5705 5707 5706 5704 5703 5703 5703 5702 5700 5698 5696 5694 5693 5692 5690 5688 5686 5684 5684 5683 5682 5678 5677 5677 5674 5670 5669 5666 5663 5662 5659 5656 5655 5652 5647 5644 5640 5637 5633 5630 5627 5624 5621 5617 5612 5610 5609 5603 5599 5602 5601 5591 5581 5578 5573 5563 5557 5556 5550 5542 5538 5534 5527 5521 5512 5500 5496 5491 5477 5463 5459 5455 5447 5440 5434 5430 5427 5419 5411 5408 5404 5400 5398 5394 5391 5388 5383
5699 5698 5699 5697 5695 5696 5695 5694 5693 5691 5690 5688 5686 5687 5685 5682 5680 5678 5677 5676 5675 5674 5673 5671 5670 5667 5664 5663 5661 5658 5656 5653 5650 5648 5646 5641 5637 5634 5630 5626 5622 5619 5616 5614 5612 5606 5599 5599 5597 5591 5594 5598 5590 5580 5576 5569 5557 5550 5548 5541 5533 5531 5529 5522 5517 5507 5494 5490 5490 5475 5457 5453 5453 5445 5435 5428 5425 5423 5416 5407 5403 5399 5395 5392 5388 5384 5380 5376
5690 5690 5690 5689 5687 5687 5686 5685 5684 5682 5681 5681 5679 5678 5676 5674 5672 5670 5669 5669 5668 5666 5666 5664 5662 5660 5658 5657 5655 5652 5650 5647 5644 5641 5638 5635 5632 5628 5624 5621 5616 5611 5609 5606 5604 5600 5592 5590 5590 5584 5583 5590 5586 5576 5574 5571 5560 5551 5544 5534 5526 5525 5521 5517 5512 5501 5489 5483 5478 5464 5451 5445 5441 5435 5426 5420 5419 5417 5411 5403 5397 5394 5391 5387 5381 5376 5372 5369
5682 5681 5682 5681 5678 5678 5678 5676 5675 5674 5674 5675 5672 5668 5667 5666 5664 5662 5660 5661 5661 5659 5658 5657 5654 5653 5652 5651 5649 5645 5643 5641 5637 5634 5631 5628 5625 5621 5617 5614 5609 5603 5602 5599 5595 5592 5587 5583 5582 5576 5573 5579 5579 5569 5565 5566 5560 5552 5544 5530 5520 5518 5514 5509 5507 5498 5489 5483 5470 5454 5445 5439 5432 5426 5417 5411 5411 5411 5406 5399 5393 5388 5384 5381 5376 5370 5366 5363